When you browse on this site, cookies collect data to enhance your experience and personalize the content and advertising you see.
Visit our Privacy Policy to learn more. By continuing to use the site, you agree to this use of cookies and data.
  • En España
  • Lista de países
  • Para 7 días
  • Temperatura del agua
  • Mapa Satelital
  • El tiempo en el mapa
  • Informadores
  • user-avatar
    Iniciar sesión

    Tiempo cada hora Ashkelon

    Hoy, 20 Abril, Sábado

    Tiempo Temperatura Precipitaciones Viento Presión Humedad
    00:00 +14°C° 0.1 mm 3 mps 760 mmHg 75%
    01:00 +14°C° 0.1 mm 3 mps 760 mmHg 76%
    02:00 +14°C° 0 mm 3 mps 759 mmHg 78%
    03:00 +14°C° 0.2 mm 3 mps 759 mmHg 78%
    04:00 +14°C° 0.2 mm 3 mps 759 mmHg 78%
    05:00 +14°C° 0.2 mm 3 mps 759 mmHg 78%
    06:00 +15°C° 0.2 mm 4 mps 759 mmHg 73%
    07:00 +16°C° 0.2 mm 5 mps 759 mmHg 68%
    08:00 +17°C° 0 mm 5 mps 759 mmHg 63%
    09:00 +17°C° 0.2 mm 6 mps 759 mmHg 60%
    10:00 +19°C° 0.2 mm 6 mps 759 mmHg 58%
    11:00 +18°C° 0.2 mm 7 mps 759 mmHg 55%
    12:00 +20°C° 0.1 mm 7 mps 759 mmHg 55%
    13:00 +20°C° 0.1 mm 7 mps 759 mmHg 55%
    14:00 +20°C° 0 mm 7 mps 758 mmHg 55%
    15:00 +18°C° 0.1 mm 7 mps 758 mmHg 57%
    16:00 +19°C° 0.1 mm 6 mps 758 mmHg 59%
    17:00 +17°C° 0.1 mm 6 mps 758 mmHg 61%
    18:00 +17°C° 0 mm 6 mps 758 mmHg 65%
    19:00 +16°C° 0 mm 5 mps 759 mmHg 68%
    20:00 +15°C° 0 mm 5 mps 759 mmHg 71%
    21:00 +15°C° 0.1 mm 5 mps 759 mmHg 72%
    22:00 +15°C° 0.1 mm 5 mps 759 mmHg 73%
    23:00 +15°C° 0.1 mm 5 mps 759 mmHg 74%

    Mañana, 21 Abril, Domingo

    Tiempo Temperatura Precipitaciones Viento Presión Humedad
    00:00 +15°C° 0.1 mm 6 mps 758 mmHg 73%
    01:00 +15°C° 0.1 mm 6 mps 758 mmHg 71%
    02:00 +15°C° 0.1 mm 7 mps 758 mmHg 70%
    03:00 +14°C° 0.1 mm 7 mps 758 mmHg 68%
    04:00 +13°C° 0.1 mm 8 mps 757 mmHg 67%
    05:00 +13°C° 0.1 mm 9 mps 757 mmHg 65%
    06:00 +15°C° 0.3 mm 9 mps 757 mmHg 62%
    07:00 +14°C° 0.3 mm 10 mps 757 mmHg 59%
    08:00 +16°C° 0.3 mm 11 mps 757 mmHg 57%
    09:00 +16°C° 0.6 mm 11 mps 758 mmHg 55%
    10:00 +16°C° 0.6 mm 10 mps 758 mmHg 54%
    11:00 +17°C° 0.6 mm 10 mps 758 mmHg 53%
    12:00 +17°C° 0.1 mm 10 mps 758 mmHg 50%
    13:00 +17°C° 0.1 mm 10 mps 758 mmHg 48%
    14:00 +17°C° 0.1 mm 10 mps 758 mmHg 45%
    15:00 +17°C° 0 mm 10 mps 759 mmHg 45%
    16:00 +16°C° 0 mm 9 mps 759 mmHg 45%
    17:00 +16°C° 0 mm 8 mps 759 mmHg 45%
    18:00 +15°C° 0 mm 7 mps 759 mmHg 49%
    19:00 +15°C° 0 mm 6 mps 759 mmHg 52%
    20:00 +14°C° 0 mm 5 mps 760 mmHg 55%
    21:00 +14°C° 0 mm 5 mps 760 mmHg 57%
    22:00 +13°C° 0 mm 4 mps 760 mmHg 59%
    23:00 +13°C° 0 mm 4 mps 760 mmHg 61%

    Pasado mañana, 22 Abril, Lunes

    Tiempo Temperatura Precipitaciones Viento Presión Humedad
    00:00 +13°C° 0 mm 4 mps 760 mmHg 62%
    01:00 +13°C° 0 mm 3 mps 760 mmHg 63%
    02:00 +12°C° 0 mm 3 mps 759 mmHg 65%
    03:00 +13°C° 0 mm 3 mps 759 mmHg 64%
    04:00 +13°C° 0 mm 3 mps 759 mmHg 63%
    05:00 +13°C° 0 mm 3 mps 759 mmHg 62%
    06:00 +14°C° 0 mm 4 mps 759 mmHg 60%
    07:00 +14°C° 0 mm 5 mps 760 mmHg 59%
    08:00 +15°C° 0 mm 5 mps 760 mmHg 57%
    09:00 +16°C° 0.1 mm 6 mps 760 mmHg 57%
    10:00 +16°C° 0.1 mm 6 mps 760 mmHg 56%
    11:00 +17°C° 0.1 mm 6 mps 760 mmHg 55%
    12:00 +17°C° 0 mm 6 mps 760 mmHg 54%
    13:00 +19°C° 0 mm 6 mps 760 mmHg 53%
    14:00 +19°C° 0 mm 5 mps 760 mmHg 53%
    15:00 +19°C° 0 mm 5 mps 760 mmHg 54%
    16:00 +18°C° 0 mm 4 mps 760 mmHg 55%
    17:00 +18°C° 0 mm 4 mps 760 mmHg 56%
    18:00 +17°C° 0 mm 3 mps 760 mmHg 60%
    19:00 +16°C° 0 mm 2 mps 761 mmHg 64%
    20:00 +15°C° 0 mm 1 mps 761 mmHg 68%
    21:00 +15°C° 0 mm 1 mps 762 mmHg 68%
    22:00 +15°C° 0 mm 1 mps 762 mmHg 69%
    23:00 +14°C° 0 mm 1 mps 762 mmHg 70%

    23 Abril, Martes

    Tiempo Temperatura Precipitaciones Viento Presión Humedad
    00:00 +14°C° 0 mm 1 mps 762 mmHg 69%
    01:00 +14°C° 0 mm 1 mps 762 mmHg 69%
    02:00 +14°C° 0 mm 1 mps 762 mmHg 69%
    03:00 +13°C° 0 mm 2 mps 762 mmHg 68%
    04:00 +13°C° 0 mm 2 mps 762 mmHg 67%
    05:00 +13°C° 0 mm 2 mps 762 mmHg 66%
    06:00 +15°C° 0 mm 1 mps 763 mmHg 60%
    07:00 +16°C° 0 mm 1 mps 763 mmHg 54%
    08:00 +17°C° 0 mm 0 mps 763 mmHg 48%
    09:00 +20°C° 0 mm 1 mps 764 mmHg 46%
    10:00 +20°C° 0 mm 2 mps 764 mmHg 43%
    11:00 +21°C° 0 mm 3 mps 764 mmHg 41%
    12:00 +21°C° 0 mm 4 mps 763 mmHg 42%
    13:00 +22°C° 0 mm 5 mps 763 mmHg 43%
    14:00 +22°C° 0 mm 6 mps 763 mmHg 44%
    15:00 +22°C° 0 mm 6 mps 763 mmHg 46%
    16:00 +21°C° 0 mm 7 mps 763 mmHg 47%
    17:00 +20°C° 0 mm 7 mps 763 mmHg 49%
    18:00 +19°C° 0 mm 6 mps 763 mmHg 50%
    19:00 +17°C° 0 mm 6 mps 764 mmHg 52%
    20:00 +17°C° 0 mm 5 mps 764 mmHg 53%
    21:00 +16°C° 0 mm 5 mps 764 mmHg 53%
    22:00 +16°C° 0 mm 5 mps 764 mmHg 53%
    23:00 +17°C° 0 mm 4 mps 764 mmHg 53%

    24 Abril, Miércoles

    Tiempo Temperatura Precipitaciones Viento Presión Humedad
    00:00 +16°C° 0 mm 5 mps 764 mmHg 54%
    01:00 +15°C° 0 mm 5 mps 764 mmHg 54%
    02:00 +15°C° 0 mm 5 mps 764 mmHg 55%
    03:00 +15°C° 0 mm 4 mps 763 mmHg 54%
    04:00 +15°C° 0 mm 4 mps 763 mmHg 53%
    05:00 +16°C° 0 mm 3 mps 763 mmHg 53%
    06:00 +18°C° 0 mm 3 mps 763 mmHg 48%
    07:00 +20°C° 0 mm 2 mps 764 mmHg 43%
    08:00 +23°C° 0 mm 2 mps 764 mmHg 38%
    09:00 +24°C° 0 mm 3 mps 764 mmHg 36%
    10:00 +25°C° 0 mm 3 mps 764 mmHg 34%
    11:00 +27°C° 0 mm 3 mps 764 mmHg 31%
    12:00 +27°C° 0 mm 4 mps 763 mmHg 32%
    13:00 +28°C° 0 mm 5 mps 762 mmHg 33%
    14:00 +28°C° 0 mm 6 mps 762 mmHg 33%
    15:00 +27°C° 0 mm 7 mps 762 mmHg 38%
    16:00 +26°C° 0 mm 8 mps 762 mmHg 43%
    17:00 +23°C° 0 mm 9 mps 762 mmHg 48%
    18:00 +22°C° 0 mm 7 mps 762 mmHg 49%
    19:00 +21°C° 0 mm 6 mps 762 mmHg 50%
    20:00 +20°C° 0 mm 5 mps 762 mmHg 51%
    21:00 +20°C° 0 mm 5 mps 762 mmHg 50%
    22:00 +20°C° 0 mm 4 mps 762 mmHg 48%
    23:00 +20°C° 0 mm 4 mps 762 mmHg 46%

    25 Abril, Jueves

    Tiempo Temperatura Precipitaciones Viento Presión Humedad
    00:00 +19°C° 0 mm 4 mps 762 mmHg 46%
    01:00 +19°C° 0 mm 3 mps 762 mmHg 47%
    02:00 +19°C° 0 mm 3 mps 761 mmHg 47%
    03:00 +18°C° 0 mm 3 mps 761 mmHg 50%
    04:00 +18°C° 0 mm 3 mps 761 mmHg 53%
    05:00 +18°C° 0 mm 3 mps 761 mmHg 56%
    06:00 +20°C° 0 mm 3 mps 762 mmHg 49%
    07:00 +21°C° 0 mm 2 mps 762 mmHg 43%
    08:00 +24°C° 0 mm 2 mps 762 mmHg 37%
    09:00 +25°C° 0 mm 3 mps 762 mmHg 36%
    10:00 +27°C° 0 mm 4 mps 762 mmHg 34%
    11:00 +28°C° 0 mm 5 mps 761 mmHg 33%
    12:00 +28°C° 0 mm 5 mps 761 mmHg 33%
    13:00 +28°C° 0 mm 6 mps 760 mmHg 33%
    14:00 +28°C° 0 mm 7 mps 760 mmHg 32%
    15:00 +27°C° 0 mm 7 mps 760 mmHg 35%
    16:00 +26°C° 0 mm 6 mps 760 mmHg 37%
    17:00 +24°C° 0 mm 6 mps 760 mmHg 39%
    18:00 +23°C° 0 mm 5 mps 760 mmHg 43%
    19:00 +22°C° 0 mm 4 mps 760 mmHg 47%
    20:00 +21°C° 0 mm 3 mps 760 mmHg 50%
    21:00 +20°C° 0 mm 2 mps 760 mmHg 53%
    22:00 +20°C° 0 mm 2 mps 760 mmHg 55%
    23:00 +19°C° 0 mm 2 mps 760 mmHg 58%
    Mostrar más